sat.trackr.live / text

‹ back to catalog

BSAT-3B

NORAD 37207 · 2010-056B

PAYLOAD ACTIVE UNKNOWN

§ Identity

Operator
Country
JPN
Launch date
2010-10-28
Launch site
FRGUI
Launch vehicle
Mass (kg)
RCS (m²)
10.00

Purposes: comms

External: N2YO · Heavens-Above · Gunter

§ Orbital elements

Epoch: 2026-05-25T00:50:36.291264Z

Period
1,436.08 min
Inclination
0.0507°
Eccentricity
0.0000601
Mean motion
1.00272690 rev/d
Perigee alt
35,783.8 km
Apogee alt
35,788.9 km
Semi-major
42,164.5 km
B*
0.0000e+0
RAAN
240.8592°
Arg perigee
279.3058°
Mean anomaly
204.9509°
Rev number
5,186

§ Raw data

BSAT-3B1 37207U 10056B   26145.03514226 -.00000353  00000+0  00000+0 0  99922 37207   0.0507 240.8592 0000601 279.3058 204.9509  1.00272690 51860

JSON: /api/v1/satellites/37207 · /tle

For live sub-satellite position, see the globe view (requires WebGL).

§ Visibility from observer

Set your observer location to see the next 7 days of passes ≥ 10°. The values pass through the URL so the page stays shareable.

No JS? Fill the form by hand. The geolocation button needs JavaScript.